GW0468 Weather Reports


time (UTC)temp
C
wind
direction
speed
KPH
gust
KPH
rain 1hr
cm
rain 24hr
cm
rain mn
cm
humidity
%
barometer
mb
20260506103427 -17 0.0 0.0 0.00 0.00 0.00 1007.1
20260506102923 -17 0.0 0.0 0.00 0.00 0.00 1007.0
20260506102415 -17 0.0 0.0 0.00 0.00 0.00 1007.0
20260506101911 -17 0.0 0.0 0.00 0.00 0.00 1007.0
20260506100859 -17 0.0 0.0 0.00 0.00 0.00 1007.1
20260506095846 -17 0.0 0.0 0.00 0.00 0.00 1007.1
20260506095338 -17 0.0 0.0 0.00 0.00 0.00 1007.0
20260506094833 -17 0.0 0.0 0.00 0.00 0.00 1007.0
20260506093822 -17 0.0 0.0 0.00 0.00 0.00 1006.9
20260506093313 -17 0.0 0.0 0.00 0.00 0.00 1007.1
20260506092808 24 103 1.6 6.4 0.00 0.00 0.00 1 1007.0
20260506092306 24 103 1.6 6.4 0.00 0.00 0.00 1 1007.0
20260506091807 24 131 0.0 6.4 0.00 0.00 0.00 1 1007.0
20260506091307 24 103 3.2 4.8 0.00 0.00 0.00 1 1007.0
20260506090809 24 135 1.6 11.3 0.00 0.00 0.00 1 1007.0
20260506090306 24 134 3.2 11.3 0.00 0.00 0.00 1 1007.0
20260506085306 24 125 3.2 8.0 0.00 0.00 0.00 1 1007.0
20260506084806 25 114 3.2 9.7 0.00 0.00 0.00 1 1006.8
20260506084306 25 110 6.4 9.7 0.00 0.00 0.00 1 1006.9
20260506083809 25 140 4.8 8.0 0.00 0.00 0.00 1 1006.8
20260506083304 25 118 1.6 4.8 0.00 0.00 0.00 1 1006.9
20260506082807 25 120 1.6 8.0 0.00 0.00 0.00 1 1007.1
20260506082307 25 159 1.6 8.0 0.00 0.00 0.00 1 1007.1
20260506081807 25 110 3.2 11.3 0.00 0.00 0.00 1 1007.0
20260506081304 25 145 6.4 11.3 0.00 0.00 0.00 1 1006.9
20260506080806 25 134 3.2 9.7 0.00 0.00 0.00 1 1006.9
20260506080305 25 131 3.2 9.7 0.00 0.00 0.00 1 1007.1
20260506072806 25 144 3.2 9.7 0.00 0.00 0.00 1 1007.3
20260506072306 25 106 1.6 6.4 0.00 0.00 0.00 1 1007.3
20260506071805 25 127 1.6 8.0 0.00 0.00 0.00 1 1007.5
20260506071303 25 137 3.2 9.7 0.00 0.00 0.00 1 1007.5
20260506070807 25 193 6.4 9.7 0.00 0.00 0.00 1 1007.6
20260506070304 25 137 1.6 8.0 0.00 0.00 0.00 1 1007.8
20260506062305 25 145 4.8 16.1 0.00 0.00 0.00 1 1008.0
20260506061301 25 145 6.4 14.5 0.00 0.00 0.00 1 1008.1
20260506060804 25 124 6.4 14.5 0.00 0.00 0.00 1 1008.1
20260506060300 25 154 8.0 14.5 0.00 0.00 0.00 1 1008.2
20260506051301 25 169 4.8 14.5 0.00 0.00 0.00 1 1008.0
20260506050804 25 171 8.0 14.5 0.00 0.00 0.00 1 1007.9
20260506050301 25 164 4.8 16.1 0.00 0.00 0.00 1 1007.9
20260506044301 25 247 8.0 16.1 0.00 0.00 0.00 1 1007.9
20260506042801 25 210 6.4 16.1 0.00 0.00 0.00 1 1007.6
20260506042257 25 152 4.8 14.5 0.00 0.00 0.00 1 1007.5
20260506041300 25 135 6.4 16.1 0.00 0.00 0.00 1 1007.4
20260506040801 25 176 8.0 17.7 0.00 0.00 0.00 1 1007.4
20260506040258 25 154 8.0 17.7 0.00 0.00 0.00 1 1007.4
20260506035300 25 125 8.0 14.5 0.00 0.00 0.00 1 1007.3
20260506034257 25 162 6.4 19.3 0.00 0.00 0.00 1 1007.2
20260506033800 25 116 6.4 19.3 0.00 0.00 0.00 1 1007.1
20260506033259 25 157 8.0 22.5 0.00 0.00 0.00 1 1007.1
20260506032759 25 148 11.3 22.5 0.00 0.00 0.00 1 1006.9
20260506032257 25 165 9.7 19.3 0.00 0.00 0.00 1 1007.1
20260506031257 25 144 8.0 19.3 0.00 0.00 0.00 1 1007.0
20260506030759 25 123 11.3 24.1 0.00 0.00 0.00 1 1007.0
20260506030257 25 134 9.7 24.1 0.00 0.00 0.00 1 1007.0
20260506025258 25 154 6.4 16.1 0.00 0.00 0.00 1 1007.0
20260506024758 25 142 11.3 16.1 0.00 0.00 0.00 1 1006.9
20260506024258 25 141 6.4 16.1 0.00 0.00 0.00 1 1006.9
20260506023801 25 123 6.4 16.1 0.00 0.00 0.00 1 1006.7
20260506023258 25 147 6.4 16.1 0.00 0.00 0.00 1 1006.7
20260506022759 25 128 8.0 16.1 0.00 0.00 0.00 1 1006.7
20260506022258 25 133 6.4 14.5 0.00 0.00 0.00 1 1006.6
20260506021759 25 155 8.0 14.5 0.00 0.00 0.00 1 1006.5
20260506020757 25 118 4.8 14.5 0.00 0.00 0.00 1 1006.3
20260506020257 25 138 6.4 14.5 0.00 0.00 0.00 1 1006.2
20260506015757 25 117 8.0 16.1 0.00 0.00 0.00 1 1006.3
20260506015256 25 147 9.7 19.3 0.00 0.00 0.00 1 1006.3
20260506014757 25 145 11.3 24.1 0.00 0.00 0.00 1 1006.1
20260506014255 25 147 12.9 24.1 0.00 0.00 0.00 1 1006.0
20260506013758 25 158 9.7 17.7 0.00 0.00 0.00 1 1006.0
20260506013256 25 133 8.0 16.1 0.00 0.00 0.00 1 1005.9
20260506012756 25 116 4.8 20.9 0.00 0.00 0.00 1 1005.9
20260506012255 26 134 9.7 20.9 0.00 0.00 0.00 1 1005.9
20260506011256 26 124 8.0 16.1 0.00 0.00 0.00 1 1005.7
20260506010759 26 137 8.0 14.5 0.00 0.00 0.00 1 1005.6
20260506010254 26 123 8.0 14.5 0.00 0.00 0.00 1 1005.6
20260506005756 26 168 8.0 20.9 0.00 0.00 0.00 1 1005.4
20260506004756 26 141 9.7 22.5 0.00 0.00 0.00 1 1005.4
20260506003758 26 185 6.4 20.9 0.00 0.00 0.00 1 1005.3
20260506003256 26 118 8.0 20.9 0.00 0.00 0.00 1 1005.2
20260506002253 26 135 14.5 20.9 0.00 0.00 0.00 1 1005.2
20260506001756 26 121 8.0 24.1 0.00 0.00 0.00 1 1005.2
20260506001254 26 154 9.7 24.1 0.00 0.00 0.00 1 1005.2
20260506000255 26 155 9.7 22.5 0.00 0.00 0.00 1 1005.2
20260505235755 26 158 9.7 19.3 0.00 0.00 0.00 1 1005.0
20260505235255 26 148 11.3 19.3 0.00 0.00 0.00 1 1005.1
20260505234755 27 128 11.3 24.1 0.00 0.00 0.00 1 1005.0
20260505233756 27 141 9.7 24.1 0.00 0.00 0.00 1 1005.0
20260505233252 27 135 12.9 25.7 0.00 0.00 0.00 1 1005.1
20260505232754 27 120 11.3 25.7 0.00 0.00 0.00 1 1004.9
20260505232253 27 159 9.7 29.0 0.00 0.00 0.00 1 1005.1
20260505231755 27 110 16.1 29.0 0.00 0.00 0.00 1 1005.0
20260505231253 27 114 9.7 22.5 0.00 0.00 0.00 1 1004.9
20260505230756 27 157 14.5 22.5 0.00 0.00 0.00 1 1005.1
20260505230254 27 117 11.3 20.9 0.00 0.00 0.00 1 1005.1
20260505225753 27 155 12.9 20.9 0.00 0.00 0.00 1 1005.1
20260505225252 27 102 9.7 22.5 0.00 0.00 0.00 1 1005.2
20260505224253 27 94 16.1 24.1 0.00 0.00 0.00 1 1005.3
20260505223755 27 125 12.9 22.5 0.00 0.00 0.00 3 1005.3
20260505223251 27 117 12.9 24.1 0.00 0.00 0.00 1 1005.3
20260505222754 27 158 11.3 24.1 0.00 0.00 0.00 6 1005.5
20260505222253 27 161 12.9 24.1 0.00 0.00 0.00 3 1005.5
20260505221754 27 166 9.7 25.7 0.00 0.00 0.00 9 1005.5
20260505221253 27 100 12.9 25.7 0.00 0.00 0.00 5 1005.5
20260505220753 27 116 12.9 24.1 0.00 0.00 0.00 15 1005.5
20260505215753 28 145 11.3 24.1 0.00 0.00 0.00 18 1005.6
20260505215252 28 87 14.5 24.1 0.00 0.00 0.00 24 1005.5
20260505214752 28 109 11.3 22.5 0.00 0.00 0.00 29 1005.6
20260505214250 28 145 9.7 22.5 0.00 0.00 0.00 36 1005.6
20260505213753 28 155 11.3 25.7 0.00 0.00 0.00 41 1005.6
20260505213251 28 138 12.9 25.7 0.00 0.00 0.00 47 1005.6
20260505212250 28 128 14.5 20.9 0.00 0.00 0.00 47 1005.8
20260505211751 28 147 11.3 19.3 0.00 0.00 0.00 50 1005.9
20260505211250 28 125 9.7 22.5 0.00 0.00 0.00 46 1006.0
20260505210752 28 166 11.3 22.5 0.00 0.00 0.00 49 1006.0
20260505210249 28 114 12.9 24.1 0.00 0.00 0.00 45 1006.1
20260505205752 28 152 14.5 24.1 0.00 0.00 0.00 45 1006.1
20260505205250 28 159 12.9 20.9 0.00 0.00 0.00 44 1006.2
20260505204751 28 137 14.5 20.9 0.00 0.00 0.00 43 1006.2
20260505204248 28 118 9.7 20.9 0.00 0.00 0.00 41 1006.3
20260505203753 28 131 12.9 20.9 0.00 0.00 0.00 42 1006.3
20260505203249 28 161 11.3 24.1 0.00 0.00 0.00 42 1006.5
20260505202250 28 178 12.9 24.1 0.00 0.00 0.00 48 1006.5
20260505201750 28 162 14.5 24.1 0.00 0.00 0.00 41 1006.6
20260505201249 28 155 12.9 25.7 0.00 0.00 0.00 46 1006.6
20260505200751 28 159 11.3 25.7 0.00 0.00 0.00 41 1006.7
20260505200249 28 111 9.7 19.3 0.00 0.00 0.00 40 1006.8
20260505195749 28 140 9.7 24.1 0.00 0.00 0.00 36 1006.9
20260505195248 28 166 11.3 24.1 0.00 0.00 0.00 39 1006.9
20260505194750 28 154 12.9 19.3 0.00 0.00 0.00 45 1006.8
20260505194249 28 114 3.2 19.3 0.00 0.00 0.00 43 1006.9
20260505193751 28 144 9.7 19.3 0.00 0.00 0.00 44 1007.0
20260505193248 28 131 9.7 17.7 0.00 0.00 0.00 36 1007.0
20260505192749 28 148 8.0 19.3 0.00 0.00 0.00 34 1007.0
20260505192248 28 182 9.7 22.5 0.00 0.00 0.00 33 1007.1
20260505191749 28 125 9.7 22.5 0.00 0.00 0.00 36 1007.2
20260505191248 28 178 8.0 17.7 0.00 0.00 0.00 24 1007.2
20260505190750 27 155 9.7 19.3 0.00 0.00 0.00 29 1007.3
20260505190247 27 140 11.3 19.3 0.00 0.00 0.00 30 1007.2
20260505184748 27 161 6.4 14.5 0.00 0.00 0.00 20 1007.5
20260505184246 27 149 9.7 14.5 0.00 0.00 0.00 21 1007.5
20260505183750 27 127 8.0 14.5 0.00 0.00 0.00 18 1007.6
20260505183246 27 140 6.4 16.1 0.00 0.00 0.00 25 1007.7
20260505182747 27 148 4.8 19.3 0.00 0.00 0.00 21 1007.8
20260505181748 27 179 8.0 17.7 0.00 0.00 0.00 24 1007.7
20260505180748 27 175 6.4 14.5 0.00 0.00 0.00 17 1007.8
20260505180245 27 165 6.4 14.5 0.00 0.00 0.00 18 1007.8
20260505175246 27 199 8.0 20.9 0.00 0.00 0.00 6 1007.9
20260505174746 27 196 9.7 16.1 0.00 0.00 0.00 8 1007.8
20260505174246 27 171 6.4 16.1 0.00 0.00 0.00 1 1007.9
20260505173749 27 157 8.0 20.9 0.00 0.00 0.00 1 1008.0
20260505173246 27 171 11.3 20.9 0.00 0.00 0.00 1 1008.0
20260505172747 27 196 8.0 11.3 0.00 0.00 0.00 1 1008.0
20260505172246 26 138 6.4 11.3 0.00 0.00 0.00 1 1008.1
20260505171747 27 178 8.0 16.1 0.00 0.00 0.00 1 1008.1
20260505170748 27 169 9.7 16.1 0.00 0.00 0.00 1 1008.2
20260505170245 27 195 8.0 14.5 0.00 0.00 0.00 1 1008.2
20260505165747 26 176 6.4 14.5 0.00 0.00 0.00 1 1008.2
20260505165245 26 148 3.2 19.3 0.00 0.00 0.00 1 1008.3
20260505164747 26 179 8.0 19.3 0.00 0.00 0.00 1 1008.3
20260505164244 26 133 9.7 17.7 0.00 0.00 0.00 1 1008.3
20260505163746 26 158 6.4 17.7 0.00 0.00 0.00 1 1008.2
20260505163244 26 171 9.7 17.7 0.00 0.00 0.00 1 1008.3
20260505162746 26 168 6.4 11.3 0.00 0.00 0.00 1 1008.3
20260505162244 25 152 4.8 11.3 0.00 0.00 0.00 1 1008.3
20260505161744 25 96 6.4 11.3 0.00 0.00 0.00 1 1008.4
20260505161244 25 140 4.8 9.7 0.00 0.00 0.00 1 1008.3
20260505160747 25 144 4.8 8.0 0.00 0.00 0.00 1 1008.3
20260505160243 25 128 1.6 8.0 0.00 0.00 0.00 1 1008.2
20260505153242 24 142 3.2 4.8 0.00 0.00 0.00 1 1008.3
20260505152744 23 200 1.6 4.8 0.00 0.00 0.00 1 1008.3
20260505152242 23 152 1.6 3.2 0.00 0.00 0.00 1 1008.3
20260505151744 23 209 0.0 6.4 0.00 0.00 0.00 1 1008.4
20260505151243 23 209 1.6 6.4 0.00 0.00 0.00 1 1008.3
20260505150744 23 188 3.2 9.7 0.00 0.00 0.00 1 1008.3
20260505150241 23 166 6.4 9.7 0.00 0.00 0.00 1 1008.2
20260505140240 22 149 1.6 4.8 0.00 0.00 0.00 1 1008.1
20260505130234 -17 0.0 0.0 0.00 0.00 0.00 1008.0
20260505124718 -17 0.0 0.0 0.00 0.00 0.00 1007.9
20260505124209 -17 0.0 0.0 0.00 0.00 0.00 1007.8
20260505123706 -17 0.0 0.0 0.00 0.00 0.00 1007.8
20260505123156 -17 0.0 0.0 0.00 0.00 0.00 1007.8
20260505122653 -17 0.0 0.0 0.00 0.00 0.00 1007.7
20260505122144 -17 0.0 0.0 0.00 0.00 0.00 1007.6
20260505121640 -17 0.0 0.0 0.00 0.00 0.00 1007.5
20260505121132 -17 0.0 0.0 0.00 0.00 0.00 1007.5
20260505120630 -17 0.0 0.0 0.00 0.00 0.00 1007.4
20260505120119 -17 0.0 0.0 0.00 0.00 0.00 1007.3
20260505115616 -17 0.0 0.0 0.00 0.00 0.00 1007.3
20260505115108 -17 0.0 0.0 0.00 0.00 0.00 1007.3
20260505114604 -17 0.0 0.0 0.00 0.00 0.00 1007.3
20260505113552 -17 0.0 0.0 0.00 0.00 0.00 1007.5
20260505113042 -17 0.0 0.0 0.00 0.00 0.00 1007.5
20260505112539 -17 0.0 0.0 0.00 0.00 0.00 1007.5
20260505112031 -17 0.0 0.0 0.00 0.00 0.00 1007.5
20260505111526 -17 0.0 0.0 0.00 0.00 0.00 1007.4
20260505111018 -17 0.0 0.0 0.00 0.00 0.00 1007.3